STARLINK-11133, 59954

Orbit data source: Space-Track

STARLINK-11133, 59954 is a payload satellite owned by SpaceX/Seattle (US) in LEO that was launched on Wed, 05 Jun 2024 UTC via an FALCON 9 launch vehicle from the Air Force Eastern Test Range (AFETR). Payload-class satellites include a variety of spacecraft equipped with specific instruments for various scientific and technological missions. These include communications satellites like Starlink; space stations such as the ISS; scientific satellites like the Hubble; Earth observation satellites from companies like Planet Labs, Umbra, and HawkEye 360; GPS; miniature CubeSats for education and research; and military/defense satellites.

Loading next visibility...
Identifier
59954, 2024-107K
Orbit
LEO
Country
Flag of USUS
Related business
Manufacturer
SpaceX/Seattle
Mission
Operational spacecraft
Bus & Motor
STARLINK V2MD, Unknown motor
Mass
960 kg wet, ~910 kg dry
Launch date (UTC)
2024-06-05 (1 year ago)
Launch vehicle
FALCON 9
Launch site
Air Force Eastern Test Range (AFETR)
Object type
Payload
Rocket body
Debris
Shape & HBR
Unknown
Radar Cross Section
Large (>1 m²)

Expand to show TLE details & history
Last TLE update: 1 day ago

TLE from 1 day ago
0 STARLINK-11133
1 59954U 24107K   25260.60942659 -.00002726  00000-0 -17641-4 0  9994
2 59954  53.1596  24.3481 0001094  95.5670 264.5472 15.69720658 74966
Epoch: 2025-09-17T14:37Z
TLE epoch observation values (Epoch: 2025-09-17T14:37:34.457Z)
Latitude
-0.00007°
Longitude
168.17156°
Altitude
360.681 km
Speed
7.694 km/s
True Right ascension
01h 37m 23s
True Declination
0° 00' 00"
Sunlit
Object was in full shadow at epoch
Visualization orbit readout
Latitude
Unknown
Longitude
Unknown
Altitude
Unknown
Speed
Unknown
Apparent Right ascension
Unknown
Apparent Declination
Unknown
Sunlit
N/A
Visualization observer readout
Local Sidereal Time
13:53:35
Azimuth
Unknown
Elevation
Unknown
Doppler factor
Unknown
Orbital elements
Apogee altitude
360.694 km
Perigee altitude
359.22 km
Semi-major axis
6,738.094 km
Eccentricity
0.00011
Inclination
53.1596°
RAAN
24.3481°
Arg. of periapsis
95.567°
True anomaly
264.53472°
Mean anomaly
264.5472°
Eccentric anomaly
264.54096°
Mean motion
3.92408 °/min
Orbital period
91.74 mins
BSTAR
-0.000017641
Loading maneuver chart data...
Computing Atmospheric mass density...
Loading historical data...
Loading historical data...
Loading historical data...
Loading historical data...
Loading historical data...
Loading historical data...
Loading historical data...

Documentation

Showing up to 5 results
|